Simultaneous Nadir Overpasses (SNOs) Predictions

Prediction of SNOs between NOAA-19 and TERRA Satellite Orbit:

Table of predicted SNOs for the next 14.0 days since TLE Epoch: 12/26/2015
Index Date (NOAA-19) Time (NOAA-19) Lat,Lon (NOAA-19) SZA (NOAA-19 ) Date (TERRA) Time (TERRA) Lat,Lon (TERRA) SZA (TERRA ) Distance(km) Time Diff (sec)
1 12/26/2015 21:21:12 -72.96, 45.12 83.72 12/26/2015 21:22:04 -72.98, 45.05 83.70 3.21 52
2 12/26/2015 22:12:07 72.87,-147.43 96.20 12/26/2015 22:11:31 72.90,-147.47 96.22 2.88 36
3 12/29/2015 02:55:20 72.99, 141.56 96.20 12/29/2015 02:55:48 73.00, 141.65 96.22 3.03 28
4 12/29/2015 03:46:23 -72.86, -50.92 83.93 12/29/2015 03:45:18 -72.88, -50.95 83.91 2.58 65
5 12/31/2015 08:29:36 -72.98,-121.94 83.96 12/31/2015 08:29:35 -72.98,-121.84 83.96 3.34 1
6 12/31/2015 09:20:19 72.30, 46.79 95.40 12/31/2015 09:19:11 72.41, 44.72 95.45 70.89 68
7 01/02/2016 13:12:47 -73.01, 167.24 84.11 01/02/2016 13:13:53 -73.01, 167.14 84.11 3.27 66
8 01/02/2016 14:03:42 72.92, -25.29 95.81 01/02/2016 14:03:20 72.91, -25.40 95.80 3.43 22
9 01/04/2016 18:46:55 73.05, -96.33 95.71 01/04/2016 18:47:36 73.04, -96.23 95.71 3.59 41
10 01/04/2016 19:37:58 -72.94, 71.15 84.40 01/04/2016 19:37:06 -72.93, 71.19 84.42 1.43 52
11 01/07/2016 00:21:09 -72.98, 0.30 84.61 01/07/2016 00:21:23 -72.99, 0.24 84.61 2.42 14




NCC Satellite Simultaneous Nadir Overpasses (SNOs) Prediction Service
